Regional Weather Roundup
Issued by NWS

Home | Current Version | Previous Version | Graphics & Text | Print | Product List | Glossary On
Versions: 1 2 3 4 5 6 7 8 9 10 11 12 13 14 15 16 17 18 19 20 21 22 23 24 25 26 27 28 29 30 31 32 33 34 35 36 37 38 39 40 41 42 43 44 45 46 47 48 49 50
143
ASUS45 KTFX 280110
RWRMT
MONTANA REGIONAL WEATHER ROUNDUP
NATIONAL WEATHER SERVICE GREAT FALLS MT
700 PM MDT TUE SEP 27 2016

NOTE: "FAIR" INDICATES FEW OR NO CLOUDS BELOW 12000 FEET WITH NO
SIGNIFICANT WEATHER AND/OR OBSTRUCTIONS TO VISIBILITY.

MTZ001>007-043-280200-
WEST OF THE DIVIDE

CITY           SKY/WX    TMP DP  RH WIND       PRES   REMARKS
KALISPELL      CLEAR     76  44  32 NW7       30.01S
MISSOULA       CLEAR     78  48  34 NW3       30.04S
BUTTE          CLEAR     72  37  28 W5        30.16S
MULLAN PASS    CLEAR     60  43  53 CALM      30.21S
ANACONDA         N/A     70  39  32 NW3       30.13S
DEER LODGE       N/A     72  39  30 NW3       30.15R
EUREKA           N/A     75  43  31 W3        30.01S
HAMILTON         N/A     75  48  38 N5        30.05S
LIBBY            N/A     77  45  31 CALM      30.00S
PLAINS           N/A     79  47  32 W3        30.01R
RONAN            N/A     79  44  28 CALM      30.07S
$$

MTZ008-052>055-280200-
SOUTHWEST MONTANA

CITY           SKY/WX    TMP DP  RH WIND       PRES   REMARKS
BOZEMAN        CLEAR     70  44  39 E6        30.11S
DILLON           N/A     70  39  32 NE8       30.13S
W YELLOWSTONE  CLEAR     64  37  36 SW5       30.25S
ENNIS          CLEAR     68  39  34 NE6       30.20S
THREE FORKS      N/A     75 -17   2 CALM      30.07S
TWIN BRIDGES     N/A     73  40  30 S5        30.10S
$$

MTZ009-010-012-014-046-048-049-054-280200-
EAST SLOPES AND CENTRAL MONTANA

CITY           SKY/WX    TMP DP  RH WIND       PRES   REMARKS
CUT BANK       CLEAR     59  40  49 N23       30.13R
GREAT FALLS    CLEAR     73  44  35 VRB5      30.03R
MALMSTROM AFB  CLEAR     75  44  33 SW5       30.02R
HELENA         CLEAR     77  40  26 NW6       30.07R
CHOTEAU          N/A     64  46  52 N16G23    30.12R
CONRAD           N/A     63  47  55 NW15      30.12R
$$

MTZ011-013-016-021-045-047-050-051-280200-
NORTH CENTRAL MONTANA

CITY           SKY/WX    TMP DP  RH WIND       PRES   REMARKS
HAVRE          CLEAR     74  48  39 N20G30    29.99R
LEWISTOWN      CLEAR     74  38  27 CALM      30.08R
N BAR RANCH      N/A     66  41  39 W6        30.12R
CHINOOK          N/A     75  50  41 N14G20    29.96R
$$

MTZ017>020-022>027-061-062-280200-
NORTHEAST MONTANA

CITY           SKY/WX    TMP DP  RH WIND       PRES   REMARKS
GLASGOW        CLEAR     76  44  32 W6        29.91R
JORDAN           N/A     73  48  41 W3        29.96S
SIDNEY         CLEAR     64  51  62 W6        29.92R
WOLF POINT     CLEAR     72  53  51 CALM      29.91R
PLENTYWOOD       N/A     73  50  43 E3        29.91S
POPLAR           N/A     77  50  38 SW3       29.92R
SCOBEY           N/A     74  45  35 CALM      29.93R
$$

MTZ028>42-056>058-280200-
SOUTHCENTRAL AND SOUTHEAST MONTANA

CITY           SKY/WX    TMP DP  RH WIND       PRES   REMARKS
BAKER          CLEAR     68  48  48 SW7       30.01R
BILLINGS       CLEAR     74  40  29 W6        30.04R
LIVINGSTON     CLEAR     69  39  33 W6        30.11R
MILES CITY     CLEAR     74  45  35 W5        29.98R
BIG TIMBER     CLEAR     72  32  23 W9        30.12S
EKALAKA          N/A     69  44  40 W1        30.03R
FORSYTH          N/A     79  43  27 CALM      29.99R
ROUNDUP          N/A     77  40  26 N1        29.96R
$$

REGIONAL REPORTS...DAKOTAS

CITY           SKY/WX    TMP DP  RH WIND       PRES   REMARKS
WILLISTON      CLEAR     68  51  54 SE7       29.92R
MINOT          CLEAR     59  42  53 E5        29.95R
DICKINSON      CLEAR     66  46  48 E5        29.95R
BEACH            N/A     68  50  52 CALM      30.01R
CROSBY           N/A     61  48  63 SE8       29.94R
WATFORD CITY   HAZE      64  54  68 CALM      29.94R VSB 1
BISMARCK       CLEAR     63  43  48 NE6       29.96R
GRAND FORKS    MOCLDY    55  45  68 NE9       29.96R
FARGO          CLEAR     54  43  66 N9        29.94R
BUFFALO SD       N/A     71  46  40 NW12      29.95R
RAPID CITY     CLEAR     67  42  40 N13       30.01R
$$

REGIONAL REPORTS...WYOMING/IDAHO/WASHINGTON

CITY           SKY/WX    TMP DP  RH WIND       PRES   REMARKS
GILLETTE       CLEAR     64  42  44 NW9       30.10R
SHERIDAN       CLEAR     61  50  67 W5        30.08R
BUFFALO WY     CLEAR     71  39  31 NW9       30.15R
CODY           CLEAR     70  39  32 CALM      30.17R
YELLOWSTONE LA   N/A     51  43  74 CALM      30.35S
IDAHO FALLS    CLEAR     74  41  30 CALM      30.14S
SALMON         CLEAR     72  54  53 CALM      30.04S
BOISE          CLEAR     82  43  25 VRB7      29.98F
SPOKANE        PTCLDY    77  40  26 W8        30.02S
$$

REGIONAL REPORTS...ALBERTA

CITY           SKY/WX    TMP DP  RH WIND       PRES   REMARKS
EDMONTON       PTCLDY    55  27  33 W3        30.14R
CALGARY        MOCLDY    52  34  50 NW8       30.20R
LETHBRIDGE     PTCLDY    57  37  47 N7        30.18R
MEDICINE HAT   PTCLDY    61  39  44 N12G20    30.11R
WATERTON GATE    N/A     54  37  54 NE8         N/A
CARDSTON         N/A     55  37  50 N7          N/A
MILK RIVER       N/A     55  39  54 N13         N/A
ONEFOUR          N/A     61  43  51 NW18G24     N/A
$$

REGIONAL REPORTS...SASKATCHEWAN

CITY           SKY/WX    TMP DP  RH WIND       PRES   REMARKS
SWIFT CURRENT  CLEAR     61  46  59 NW16G23   30.02R
REGINA         CLEAR     66  48  52 E12       29.89R
SASKATOON      PTCLDY    63  46  55 N17       29.96R
CYPRESS HILLS    N/A     57  41  54 N12G17      N/A
VAL MARIE        N/A     72  46  40 N14         N/A
ROCKGLEN         N/A     72  45  37 W3          N/A
$$




USA.gov is the U.S. government's official web portal to all federal, state and local government web resources and services.